[[{"header":{"parameterUnit":"m.s-1","parameterCategory":1,"la1":30.2992,"la2":30.254,"lo1":-89.0895,"lo2":-89.0443,"dy":0.0025,"dx":0.0025,"nx":19,"ny":19,"refTime":"2026-04-12T09:00:00:Z","depth":0,"parameterNumber":2,"parameterNumberName":"U-component_of_WINDS"},"data":[0,0,0,-5.1989,-5.199,-5.2015,-5.2015,-5.2071,-5.2071,0,0,0,0,0,0,0,0,0,0,0,-5.1995,-5.1996,-5.1989,-5.199,-5.2015,-5.2015,-5.2071,-5.2071,0,0,0,0,0,0,0,0,0,0,0,-5.1995,-5.1996,-5.1997,-5.199,-5.2015,-5.2015,-5.207,-5.2043,0,0,0,0,0,0,0,0,0,0,-5.2015,-5.2033,-5.1995,-5.1997,-5.199,-5.2015,-5.2015,-5.2041,-5.2045,-5.207,0,-5.2094,0,-5.2084,-5.2077,-5.2077,0,0,0,-5.198,-5.2031,-5.2025,-5.1997,-5.1991,-5.2015,-5.2001,-5.2043,-5.2047,-5.2074,-5.2095,-5.2096,-5.2085,-5.2077,-5.2078,-5.2253,-5.2255,0,0,-5.1978,-5.2007,-5.2023,-5.2029,-5.2026,-5.2,-5.2002,-5.2045,-5.207,-5.2095,-5.2097,-5.2086,-5.2078,-5.2078,-5.2252,-5.2254,0,0,0,-5.1981,-5.2006,-5.1999,-5.2027,-5.203,-5.2001,-5.2003,-5.2068,-5.2063,-5.2098,-5.2087,-5.2078,-5.2079,-5.2251,-5.2253,-5.2342,0,0,0,-5.198,-5.2008,-5.1999,-5.2017,-5.2029,-5.2049,-5.2025,-5.206,-5.2064,-5.2086,-5.2078,-5.208,-5.2249,-5.2252,-5.2337,-5.2378,0,0,0,-5.1989,-5.2009,-5.2017,-5.2018,-5.203,-5.2047,-5.2045,-5.206,-5.2058,-5.2077,-5.208,-5.2248,-5.2251,-5.2332,-5.237,-5.2431,0,0,0,-5.2006,-5.2096,-5.2019,-5.2116,-5.203,-5.2104,-5.2044,-5.2098,-5.2125,-5.2079,-5.2249,-5.2252,-5.233,-5.2365,-5.2426,-5.2484,-5.2512,0,0,-5.2135,-5.2113,-5.2168,-5.2099,-5.2194,-5.2098,-5.2206,-5.2204,-5.2181,-5.2231,-5.2235,-5.2338,-5.2369,-5.243,-5.2668,-5.269,0,0,0,-5.2218,-5.2257,-5.2277,-5.2305,-5.2307,-5.2312,-5.2291,-5.2292,-5.2333,-5.2212,-5.2378,-5.2396,-5.243,-5.2456,-5.2476,-5.2502,-5.2267,-5.2267,-5.2266,-5.2437,-5.2404,-5.2493,-5.2463,-5.2492,-5.2472,-5.2492,-5.2488,-5.2445,-5.2486,-5.2498,-5.2647,-5.2679,-5.2693,-5.2722,-5.2531,-5.2531,-5.2532,-5.2532,-5.262,-5.2669,-5.2615,-5.268,-5.2645,-5.27,-5.2687,-5.2656,-5.2702,-5.2634,-5.2663,-5.2587,-5.2719,-5.2742,-5.2538,-5.2537,-5.2536,-5.2536,-5.2535,-5.2755,-5.2772,-5.2774,-5.2813,-5.2847,-5.2817,-5.2864,-5.2832,-5.2802,-5.2831,-5.2839,-5.2838,-5.2829,-5.2839,-5.2839,-5.284,-5.284,-5.284,-5.2841,-5.2892,-5.2891,-5.2934,-5.2949,-5.2964,-5.298,-5.2966,-5.298,-5.2987,-5.2959,-5.2959,-5.2911,-5.274,-5.2695,-5.2848,-5.2847,-5.2846,-5.2845,-5.2845,-5.308,-5.3034,-5.3101,-5.3117,-5.3132,-5.3169,-5.3131,-5.3163,-5.3171,-5.3196,-5.3145,-5.3025,-5.2998,-5.2983,-5.2945,-5.3153,-5.3153,-5.3153,-5.3153,-5.319,-5.3176,-5.3239,-5.3266,-5.3291,-5.3264,-5.3342,-5.3334,-5.3318,-5.3321,-5.3288,-5.3237,-5.3223,-5.3205,-5.3184,-5.3148,-5.3404,-5.3404,-5.3404,-5.3302,-5.329,-5.3361,-5.3346,-5.3358,-5.3369,-5.3441,-5.3475,-5.3448,-5.3414,-5.3322,-5.3312,-5.3229,-5.3205,-5.3161,-5.313,-5.3063,0,0]},{"header":{"parameterUnit":"m.s-1","parameterCategory":1,"la1":30.2992,"la2":30.254,"lo1":-89.0895,"lo2":-89.0443,"dy":0.0025,"dx":0.0025,"nx":19,"ny":19,"refTime":"2026-04-12T09:00:00:Z","depth":0,"parameterNumber":3,"parameterNumberName":"V-component_of_WINDS"},"data":[0,0,0,2.4426,2.4425,2.4376,2.4375,2.4302,2.4302,0,0,0,0,0,0,0,0,0,0,0,2.4434,2.4433,2.4426,2.4424,2.4376,2.4375,2.4303,2.4302,0,0,0,0,0,0,0,0,0,0,0,2.4434,2.4433,2.4432,2.4424,2.4376,2.4375,2.4303,2.4343,0,0,0,0,0,0,0,0,0,0,2.4392,2.4394,2.4433,2.4432,2.4424,2.4376,2.4375,2.4345,2.4341,2.432,0,2.4301,0,2.43,2.4296,2.4296,0,0,0,2.4429,2.4397,2.439,2.4432,2.4423,2.4376,2.4399,2.4343,2.4338,2.4314,2.43,2.4297,2.4299,2.4296,2.4295,2.4168,2.4167,0,0,2.4431,2.4421,2.4394,2.4387,2.4394,2.44,2.4397,2.434,2.4323,2.4299,2.4296,2.4298,2.4295,2.4295,2.4168,2.4167,0,0,0,2.4436,2.4423,2.4417,2.4389,2.4382,2.4399,2.4395,2.4326,2.4325,2.4295,2.4297,2.4295,2.4294,2.4169,2.4168,2.412,0,0,0,2.4438,2.4426,2.4418,2.4411,2.4382,2.4353,2.4382,2.4329,2.4323,2.4297,2.4295,2.4293,2.417,2.4169,2.4124,2.4099,0,0,0,2.4439,2.4426,2.4417,2.4411,2.439,2.4354,2.435,2.4328,2.4324,2.4296,2.4293,2.4171,2.4169,2.4126,2.4103,2.4064,0,0,0,2.4437,2.4372,2.4416,2.4345,2.439,2.4326,2.4351,2.4302,2.4273,2.4294,2.417,2.4168,2.4127,2.4106,2.4067,2.4029,2.4012,0,0,2.4349,2.4361,2.4321,2.4358,2.4284,2.4334,2.4252,2.4233,2.4239,2.4191,2.4188,2.4123,2.4104,2.4065,2.3922,2.3908,0,0,0,2.4289,2.426,2.4243,2.4216,2.4202,2.4189,2.4185,2.4179,2.414,2.4212,2.4098,2.4087,2.4064,2.4047,2.4035,2.4017,2.416,2.416,2.416,2.4149,2.4164,2.4098,2.4108,2.4082,2.4081,2.4061,2.4053,2.4071,2.4045,2.403,2.3942,2.3921,2.3912,2.3894,2.4011,2.4011,2.4011,2.4011,2.4023,2.3985,2.4017,2.3965,2.3982,2.3938,2.3936,2.3952,2.3914,2.3953,2.3933,2.3974,2.3897,2.3882,2.4007,2.4008,2.4008,2.4009,2.4009,2.3933,2.3917,2.3914,2.388,2.3853,2.3865,2.3829,2.3844,2.3857,2.3838,2.3826,2.3827,2.3831,2.3832,2.3832,2.3831,2.3831,2.3831,2.3831,2.384,2.3838,2.3807,2.3791,2.3779,2.3764,2.3766,2.3754,2.3744,2.3758,2.3758,2.3781,2.3887,2.3914,2.3826,2.3827,2.3827,2.3828,2.3828,2.3707,2.3741,2.3692,2.368,2.3666,2.3639,2.3661,2.3636,2.3628,2.361,2.3639,2.3715,2.3727,2.3736,2.3759,2.3635,2.3635,2.3635,2.3635,2.3631,2.364,2.3596,2.3577,2.3559,2.3576,2.3522,2.3525,2.3532,2.3529,2.3549,2.358,2.3589,2.3596,2.3608,2.3629,2.3476,2.3476,2.3476,2.3551,2.356,2.351,2.3521,2.3513,2.3505,2.3456,2.3433,2.3448,2.347,2.3527,2.3534,2.3584,2.3599,2.3619,2.3638,2.3677,0,0]}]]